星链-31712 (STARLINK-31712 )

导读 | 星芒AI

STARLINK-31712 是 SpaceX Starlink 项目中的一颗低轨通信卫星,属于第 11 批 Starlink 卫星任务(Transporter 5)的一部分,于 2023 年 11 月发射。该卫星运行在约 550 公里的轨道高度,旨在为全球提供高速互联网服务。Starlink 卫星采用先进推进系统和激光通信技术,以提升网络性能并减少延迟。STARLINK-31712 的部署有助于扩大 Starlink 在全球范围内的覆盖,特别是在偏远和网络基础设施薄弱的地区。

基本信息
目录编号:
59491
目录名称:
STARLINK-31712
国际标识:
2024-071H
轨道中心:
EARTH
卫星名称:
星链-31712
卫星全名:
星链-31712 (STARLINK-31712 )
卫星状态:
在轨 (已飞行573 天)
发射日期:
2024-04-13 UTC
国别 :
美国 (US)
星等 :
--
轨道信息
数据来源 国际轨道数据 AOE轨道数据
星历时间 2025-11-05T03:13:20+0800
2天前
查看轨道信息
2025-11-03T08:00:00+0800
4天前
查看轨道信息
半长轴 6861.189km 6861.191km
偏心率 0.0001769 0.0000011
轨道倾角 43.004° 43.006°
近地点辐角 272.282° 357.378°
升交点赤经 336.458° 346.632°
平近点角 87.782° 167.238°
近地点 481.84km 483.048km
远地点 484.268km 483.064km
周期 94.267分钟 94.267分钟
每日圈数 15.275792 15.275785
详细信息
固有亮度:
5
最大亮度:
1.5
卫星平台:
Starlink v2.0 mini
覆盖范围:
全球
运营商:
太空探索技术公司
运营商所在国:
美国
制造商(研发单位):
太空探索技术公司
制造商所在国:
美国
使用方式:
暂无
卫星简介
星链(Starlink)计划是由太空探索技术公司(SpaceX)提出的一个巨型低轨卫星互联网星座项目,计划在2019年至2024年间在太空搭建由约1.2万颗卫星组成的“星链”网络,其中1584颗将部署在地球上空550千米处的近地轨道,并从2020年开始工作。该卫星仍在工作。
2D轨道图
3D轨道图
轨道高度分析图
轨道倾角分析图
轨道综合分析图
查看轨道综合分析图